Location: Unspecified
(43.4354°N, 0.0000°E)
Time: 22:56:30
(UTC+00:00)

Vanguard 2 Rocket - Pass Details

Date: 20 June 2019
Orbit: 554 x 3326 km, 32.9° (Epoch: 15 July)

Event Time Altitude Azimuth Distance (km) Brightness Sun altitude
Rises 20:15:23 0° 200° (SSW) 3,769 9.9 -5.4°
Reaches altitude 10° 20:18:25 10° 183° (S) 3,164 9.3 -5.8°
Maximum altitude 20:24:10 21° 138° (SE) 3,050 9.0 -6.6°
Drops below altitude 10° 20:32:19 10° 96° (E) 4,699 10.1 -7.7°
Sets 20:38:16 0° 84° (E) 6,250 10.8 -8.5°
